EW4729 Weather Reports


Display with metric or nautical units.
time (UTC)temp
F
wind
direction
speed
MPH
gust
MPH
rain 1hr
in
rain 24hr
in
rain mn
in
humidity
%
barometer
mb
20260510215052 91 164 4.0 9.0 0.00 0.00 0.00 60 1012.4
20260510214557 91 113 3.0 9.0 0.00 0.00 0.00 61 1012.4
20260510214053 91 165 4.0 10.0 0.00 0.00 0.00 61 1012.3
20260510213553 91 188 3.0 10.0 0.00 0.00 0.00 61 1012.5
20260510213108 90 87 5.0 10.0 0.00 0.00 0.00 63 1012.5
20260510212552 90 210 5.0 12.0 0.00 0.00 0.00 64 1012.5
20260510212052 90 138 4.0 13.0 0.00 0.00 0.00 63 1012.6
20260510211555 91 179 6.0 13.0 0.00 0.00 0.00 63 1012.7
20260510211053 91 119 4.0 11.0 0.00 0.00 0.00 63 1012.6
20260510210552 91 121 3.0 12.0 0.00 0.00 0.00 63 1012.6
20260510210059 90 102 4.0 12.0 0.00 0.00 0.00 63 1012.6
20260510205552 90 184 6.0 12.0 0.00 0.00 0.00 64 1012.7
20260510205052 90 142 5.0 11.0 0.00 0.00 0.00 62 1012.7
20260510204637 90 167 6.0 11.0 0.00 0.00 0.00 63 1012.8
20260510204051 90 155 6.0 12.0 0.00 0.00 0.00 63 1012.8
20260510203552 90 193 6.0 12.0 0.00 0.00 0.00 63 1012.8
20260510203055 90 206 4.0 13.0 0.00 0.00 0.00 63 1012.8
20260510202556 90 143 6.0 13.0 0.00 0.00 0.00 64 1012.8
20260510202052 89 163 6.0 13.0 0.00 0.00 0.00 64 1012.8
20260510201601 89 185 2.0 11.0 0.00 0.00 0.00 67 1012.8
20260510201053 89 144 5.0 11.0 0.00 0.00 0.00 66 1012.8
20260510200550 89 87 4.0 10.0 0.00 0.00 0.00 68 1012.8
20260510200057 89 173 4.0 10.0 0.00 0.00 0.00 66 1012.9
20260510195552 88 129 5.0 10.0 0.00 0.00 0.00 66 1013.0
20260510195055 89 132 5.0 16.0 0.00 0.00 0.00 67 1012.8
20260510194602 89 82 5.0 16.0 0.00 0.00 0.00 68 1013.0
20260510194052 89 173 6.0 16.0 0.00 0.00 0.00 68 1013.0
20260510193552 89 186 5.0 15.0 0.00 0.00 0.00 66 1013.0
20260510193105 89 136 5.0 15.0 0.00 0.00 0.00 66 1013.1
20260510192552 89 196 6.0 11.0 0.00 0.00 0.00 67 1013.1
20260510192053 89 196 5.0 11.0 0.00 0.00 0.00 67 1013.2
20260510191558 88 103 4.0 14.0 0.00 0.00 0.00 66 1013.2
20260510191051 88 123 5.0 14.0 0.00 0.00 0.00 67 1013.3
20260510190553 88 196 5.0 11.0 0.00 0.00 0.00 67 1013.3
20260510185554 88 97 3.0 10.0 0.00 0.00 0.00 68 1013.3
20260510185052 87 113 2.0 10.0 0.00 0.00 0.00 70 1013.3
20260510184555 87 0 5.0 10.0 0.00 0.00 0.00 68 1013.4
20260510184053 87 142 3.0 12.0 0.00 0.00 0.00 69 1013.5
20260510183554 87 163 5.0 14.0 0.00 0.00 0.00 71 1013.6
20260510183057 87 176 6.0 14.0 0.00 0.00 0.00 69 1013.7
20260510182552 87 136 3.0 11.0 0.00 0.00 0.00 71 1013.6
20260510182055 86 101 5.0 12.0 0.00 0.00 0.00 69 1013.7
20260510181555 87 183 7.0 12.0 0.00 0.00 0.00 69 1013.8
20260510181052 86 161 3.0 11.0 0.00 0.00 0.00 72 1013.9
20260510180553 86 186 5.0 12.0 0.00 0.00 0.00 71 1013.9
20260510180105 86 152 6.0 12.0 0.00 0.00 0.00 71 1014.0
20260510175552 86 169 3.0 11.0 0.00 0.00 0.00 72 1014.1
20260510175054 85 142 4.0 10.0 0.00 0.00 0.00 73 1014.2
20260510174603 85 161 2.0 9.0 0.00 0.00 0.00 73 1014.2
20260510174051 85 109 2.0 14.0 0.00 0.00 0.00 74 1014.4
20260510173550 84 112 5.0 14.0 0.00 0.00 0.00 74 1014.4
20260510173054 84 153 2.0 10.0 0.00 0.00 0.00 75 1014.4
20260510172552 84 91 4.0 11.0 0.00 0.00 0.00 75 1014.5
20260510172051 84 122 3.0 12.0 0.00 0.00 0.00 76 1014.6
20260510171602 84 158 5.0 12.0 0.00 0.00 0.00 74 1014.9
20260510171051 84 182 1.0 8.0 0.00 0.00 0.00 77 1014.9
20260510170551 84 160 3.0 9.0 0.00 0.00 0.00 76 1014.9
20260510170053 83 133 3.0 9.0 0.00 0.00 0.00 78 1015.0
20260510165551 83 113 2.0 8.0 0.00 0.00 0.00 78 1015.0
20260510165051 82 119 2.0 8.0 0.00 0.00 0.00 80 1015.0
20260510164608 82 0 2.0 9.0 0.00 0.00 0.00 81 1014.9
20260510164051 81 74 0.0 9.0 0.00 0.00 0.00 83 1015.0
20260510163551 80 88 2.0 7.0 0.00 0.00 0.00 84 1015.1
20260510163137 79 86 2.0 8.0 0.00 0.00 0.00 86 1015.2
20260510162551 79 148 2.0 8.0 0.00 0.00 0.00 87 1015.3
20260510162052 78 61 2.0 7.0 0.00 0.00 0.00 88 1015.4
20260510161552 78 132 1.0 8.0 0.00 0.00 0.00 89 1015.3
20260510161051 78 132 2.0 8.0 0.00 0.00 0.00 89 1015.3
20260510160551 77 110 3.0 7.0 0.00 0.00 0.00 90 1015.4
20260510160056 77 82 4.0 9.0 0.00 0.00 0.00 90 1015.5
20260510155550 77 96 2.0 9.0 0.00 0.00 0.00 91 1015.5
20260510155051 77 106 3.0 10.0 0.00 0.00 0.00 91 1015.4
20260510154555 77 86 5.0 10.0 0.00 0.00 0.00 92 1015.4
20260510154051 76 117 4.0 10.0 0.00 0.00 0.00 93 1015.4
20260510153551 76 67 3.0 10.0 0.00 0.00 0.00 93 1015.4
20260510153102 76 90 3.0 12.0 0.00 0.00 0.00 94 1015.4
20260510152551 75 89 4.0 12.0 0.00 0.00 0.00 94 1015.5
20260510152051 75 117 6.0 11.0 0.00 0.00 0.00 94 1015.5
20260510151625 75 80 3.0 10.0 0.00 0.00 0.00 94 1015.4
20260510151051 75 111 3.0 9.0 0.00 0.00 0.00 95 1015.5
20260510150552 75 76 4.0 9.0 0.00 0.00 0.00 95 1015.4
20260510150100 74 94 2.0 9.0 0.00 0.00 0.00 95 1015.4
20260510145552 74 101 3.0 9.0 0.00 0.00 0.00 95 1015.4
20260510145052 74 71 3.0 9.0 0.00 0.00 0.00 95 1015.3
20260510144604 74 86 4.0 9.0 0.00 0.00 0.00 95 1015.3
20260510144051 74 90 4.0 10.0 0.00 0.00 0.00 95 1015.3
20260510143551 74 85 4.0 10.0 0.00 0.00 0.00 95 1015.2
20260510143105 74 71 4.0 7.0 0.00 0.00 0.00 95 1015.0
20260510142554 74 83 3.0 7.0 0.00 0.00 0.00 95 1015.0
20260510142055 74 91 2.0 7.0 0.00 0.00 0.00 95 1014.9
20260510141558 74 0 2.0 4.0 0.00 0.00 0.00 95 1014.8
20260510141055 74 94 2.0 4.0 0.00 0.00 0.00 95 1014.8
20260510140555 74 110 1.0 4.0 0.00 0.00 0.00 95 1014.7
20260510140053 74 102 2.0 5.0 0.00 0.00 0.00 95 1014.6
20260510135552 74 83 0.0 6.0 0.00 0.00 0.00 95 1014.5
20260510135054 73 79 2.0 6.0 0.00 0.00 0.00 95 1014.6
20260510134557 73 90 2.0 6.0 0.00 0.00 0.00 95 1014.4
20260510134057 73 72 2.0 6.0 0.00 0.00 0.00 95 1014.5
20260510133554 73 0 2.0 6.0 0.00 0.00 0.00 95 1014.3
20260510133053 73 69 0.0 4.0 0.00 0.00 0.00 95 1014.1
20260510132556 73 90 1.0 4.0 0.00 0.00 0.00 95 1014.1
20260510132058 73 90 1.0 4.0 0.00 0.00 0.00 95 1014.1
20260510131555 73 93 1.0 3.0 0.00 0.00 0.00 95 1013.9
20260510131054 73 0 0.0 0.0 0.00 0.00 0.00 95 1013.7
20260510130558 73 0 0.0 0.0 0.00 0.00 0.00 95 1013.7
20260510130057 73 0 0.0 0.0 0.00 0.00 0.00 95 1013.6
20260510125554 73 0 0.0 0.0 0.00 0.00 0.00 95 1013.5
20260510125053 73 0 0.0 0.0 0.00 0.00 0.00 95 1013.5
20260510124601 72 0 0.0 0.0 0.00 0.00 0.00 94 1013.4
20260510124052 72 0 0.0 0.0 0.00 0.00 0.00 94 1013.4
20260510123553 72 0 0.0 0.0 0.00 0.00 0.00 94 1013.4
20260510123056 72 0 0.0 2.0 0.00 0.00 0.00 94 1013.4
20260510122552 72 0 0.0 2.0 0.00 0.00 0.00 94 1013.3
20260510122052 72 0 1.0 2.0 0.00 0.00 0.00 94 1013.0
20260510121558 71 0 0.0 1.0 0.00 0.00 0.00 94 1012.9
20260510121053 71 0 0.0 4.0 0.00 0.00 0.00 94 1012.8
20260510120551 71 0 0.0 5.0 0.00 0.00 0.00 94 1012.4
20260510115554 71 162 2.0 6.0 0.00 0.00 0.00 94 1011.9
20260510115054 71 165 1.0 6.0 0.00 0.00 0.00 94 1011.9
20260510114555 71 165 2.0 6.0 0.00 0.00 0.00 94 1011.8
20260510114053 71 176 3.0 8.0 0.00 0.00 0.00 94 1011.7
20260510113554 71 200 4.0 8.0 0.00 0.00 0.00 94 1011.7
20260510113058 71 190 4.0 7.0 0.00 0.00 0.00 94 1011.6
20260510112555 71 186 3.0 8.0 0.00 0.00 0.00 93 1011.6
20260510112054 71 185 3.0 10.0 0.00 0.00 0.00 93 1011.6
20260510111553 71 188 3.0 10.0 0.00 0.00 0.00 93 1011.6
20260510111052 71 191 3.0 7.0 0.00 0.00 0.00 93 1011.5
20260510110553 71 168 2.0 5.0 0.00 0.00 0.00 93 1011.5
20260510110056 70 176 2.0 5.0 0.00 0.00 0.00 93 1011.5
20260510105554 70 177 1.0 5.0 0.00 0.00 0.00 93 1011.4
20260510105054 70 188 2.0 5.0 0.00 0.00 0.00 93 1011.4
20260510104558 70 184 1.0 4.0 0.00 0.00 0.00 93 1011.4
20260510104054 70 186 0.0 4.0 0.00 0.00 0.00 93 1011.3
20260510103554 70 186 2.0 4.0 0.00 0.00 0.00 93 1011.3
20260510103056 70 0 1.0 5.0 0.00 0.00 0.00 93 1011.3
20260510102554 70 187 2.0 6.0 0.00 0.00 0.00 93 1011.3
20260510102054 70 188 3.0 6.0 0.00 0.00 0.00 93 1011.4
20260510101554 70 212 2.0 5.0 0.00 0.00 0.00 93 1011.5
20260510101054 70 197 2.0 6.0 0.00 0.00 0.00 93 1011.3
20260510100553 70 197 2.0 8.0 0.00 0.00 0.00 93 1011.4
20260510100109 70 182 2.0 8.0 0.00 0.00 0.00 92 1011.4
20260510095553 70 198 3.0 8.0 0.00 0.00 0.00 92 1011.4
20260510095056 70 190 3.0 7.0 0.00 0.00 0.00 92 1011.5
20260510094601 70 190 3.0 6.0 0.00 0.00 0.00 92 1011.4
20260510094058 70 195 3.0 5.0 0.00 0.00 0.00 92 1011.4
20260510093552 70 202 2.0 5.0 0.00 0.00 0.00 92 1011.4
20260510093100 70 204 1.0 4.0 0.00 0.00 0.00 92 1011.4
20260510092552 70 0 0.0 4.0 0.00 0.00 0.00 91 1011.4
20260510092052 70 0 0.0 2.0 0.00 0.00 0.00 91 1011.5
20260510091554 70 0 0.0 2.0 0.00 0.00 0.00 92 1011.5
20260510091052 70 0 0.0 2.0 0.00 0.00 0.00 92 1011.5
20260510090554 70 0 0.0 2.0 0.00 0.00 0.00 91 1011.6
20260510085554 70 0 0.0 4.0 0.00 0.00 0.00 91 1011.5
20260510085053 70 0 0.0 4.0 0.00 0.00 0.00 91 1011.5
20260510084611 70 0 0.0 3.0 0.00 0.00 0.00 91 1011.5
20260510084054 70 166 0.0 3.0 0.00 0.00 0.00 90 1011.6
20260510083554 70 0 0.0 3.0 0.00 0.00 0.00 90 1011.6
20260510083058 70 0 0.0 2.0 0.00 0.00 0.00 90 1011.6
20260510082553 70 0 0.0 3.0 0.00 0.00 0.00 90 1011.6
20260510082052 70 0 0.0 3.0 0.00 0.00 0.00 90 1011.6
20260510081557 70 0 0.0 3.0 0.00 0.00 0.00 90 1011.6
20260510081054 70 0 0.0 2.0 0.00 0.00 0.00 90 1011.5
20260510080554 70 0 0.0 2.0 0.00 0.00 0.00 90 1011.6
20260510080055 70 0 0.0 1.0 0.00 0.00 0.00 90 1011.6
20260510075554 70 0 0.0 0.0 0.00 0.00 0.00 89 1011.6
20260510075052 70 0 0.0 2.0 0.00 0.00 0.00 89 1011.5
20260510074555 70 0 0.0 2.0 0.00 0.00 0.00 89 1011.6
20260510074052 70 165 0.0 2.0 0.00 0.00 0.00 88 1011.6
20260510073552 71 0 0.0 0.0 0.00 0.00 0.00 88 1011.6
20260510073103 71 0 0.0 0.0 0.00 0.00 0.00 88 1011.7
20260510072552 71 0 0.0 0.0 0.00 0.00 0.00 88 1011.7
20260510072057 71 0 0.0 0.0 0.00 0.00 0.00 88 1011.8
20260510071554 71 0 0.0 0.0 0.00 0.00 0.00 88 1011.8
20260510071051 72 0 0.0 0.0 0.00 0.00 0.00 88 1011.7
20260510070552 72 0 0.0 0.0 0.00 0.00 0.00 88 1011.8
20260510070056 72 0 0.0 0.0 0.00 0.00 0.00 88 1011.8
20260510065554 72 0 0.0 0.0 0.00 0.00 0.00 88 1011.7
20260510065055 72 0 0.0 0.0 0.00 0.00 0.00 88 1011.8
20260510064554 72 0 0.0 1.0 0.00 0.00 0.00 88 1011.9
20260510064054 72 0 0.0 1.0 0.00 0.00 0.00 88 1011.9
20260510063554 72 0 0.0 3.0 0.00 0.00 0.00 88 1011.8
20260510063053 73 0 0.0 3.0 0.00 0.00 0.00 88 1011.8
20260510062554 73 0 0.0 4.0 0.00 0.00 0.00 88 1011.8
20260510062054 73 0 0.0 4.0 0.00 0.00 0.00 88 1011.9
20260510061556 73 178 0.0 4.0 0.00 0.00 0.00 88 1011.8
20260510061056 73 0 0.0 5.0 0.00 0.00 0.00 88 1011.8
20260510060553 73 0 1.0 6.0 0.00 0.00 0.00 88 1012.1
20260510060055 73 151 0.0 7.0 0.00 0.00 0.00 88 1012.0
20260510055552 73 173 1.0 7.0 0.00 0.00 0.00 88 1011.8
20260510055055 73 173 0.0 5.0 0.00 0.00 0.00 88 1011.9
20260510054555 73 0 0.0 3.0 0.00 0.00 0.00 88 1011.9
20260510054051 73 0 0.0 5.0 0.00 0.00 0.00 88 1011.9
20260510053551 73 146 1.0 5.0 0.00 0.00 0.00 88 1011.7
20260510053100 73 143 0.0 5.0 0.00 0.00 0.00 88 1011.8
20260510052552 73 0 0.0 7.0 0.00 0.00 0.00 88 1011.7
20260510052056 73 0 0.0 7.0 0.00 0.00 0.00 88 1011.7
20260510051556 73 124 1.0 7.0 0.00 0.00 0.00 88 1011.8
20260510051055 73 0 0.0 0.0 0.00 0.00 0.00 88 1011.7
20260510050554 73 0 0.0 0.0 0.00 0.00 0.00 88 1011.8
20260510050118 73 0 0.0 1.0 0.00 0.00 0.00 88 1011.7
20260510045554 72 0 0.0 1.0 0.00 0.00 0.00 88 1011.4
20260510045052 72 0 0.0 0.0 0.00 0.00 0.00 88 1011.4
20260510044559 72 0 0.0 0.0 0.00 0.00 0.00 88 1011.4
20260510044052 72 0 0.0 0.0 0.00 0.00 0.00 88 1011.4
20260510043554 72 0 0.0 0.0 0.00 0.00 0.00 87 1011.5
20260510043111 72 0 0.0 0.0 0.00 0.00 0.00 87 1011.5
20260510042551 72 0 0.0 0.0 0.00 0.00 0.00 86 1011.4
20260510042051 72 0 0.0 0.0 0.00 0.00 0.00 86 1011.3
20260510041554 72 0 0.0 0.0 0.00 0.00 0.00 86 1011.2
20260510041052 72 0 0.0 0.0 0.00 0.00 0.00 86 1011.3
20260510040552 72 0 0.0 0.0 0.00 0.00 0.00 86 1011.3
20260510040100 72 0 0.0 0.0 0.00 0.00 0.00 85 1011.2
20260510035551 73 0 0.0 0.0 0.00 0.00 0.00 85 1011.2
20260510035051 73 0 0.0 0.0 0.00 0.00 0.00 85 1011.1
20260510034559 73 0 0.0 0.0 0.00 0.00 0.00 85 1011.0
20260510034055 73 0 0.0 0.0 0.00 0.00 0.00 84 1010.9
20260510033554 73 0 0.0 0.0 0.00 0.00 0.00 84 1010.8
20260510033126 73 0 0.0 0.0 0.00 0.00 0.00 84 1010.8
20260510032553 73 0 0.0 0.0 0.00 0.00 0.00 84 1010.8
20260510032053 73 0 0.0 0.0 0.00 0.00 0.00 84 1010.7
20260510031623 73 0 0.0 0.0 0.00 0.00 0.00 84 1010.7
20260510031053 73 0 0.0 0.0 0.00 0.00 0.00 84 1010.6
20260510030553 73 0 0.0 0.0 0.00 0.00 0.00 83 1010.8
20260510030105 73 0 0.0 0.0 0.00 0.00 0.00 83 1010.6
20260510025553 74 0 0.0 0.0 0.00 0.00 0.00 83 1010.7
20260510025053 74 0 0.0 0.0 0.00 0.00 0.00 83 1010.7
20260510024556 74 0 0.0 0.0 0.00 0.00 0.00 83 1010.6
20260510024056 74 0 0.0 0.0 0.00 0.00 0.00 83 1010.6
20260510023553 74 0 0.0 0.0 0.00 0.00 0.00 82 1010.5
20260510023057 74 0 0.0 0.0 0.00 0.00 0.00 81 1010.3
20260510022554 75 0 0.0 0.0 0.00 0.00 0.00 81 1010.1
20260510022056 75 0 0.0 0.0 0.00 0.00 0.00 81 1010.2
20260510021600 75 0 0.0 0.0 0.00 0.00 0.00 81 1010.1
20260510021053 75 0 0.0 0.0 0.00 0.00 0.00 80 1010.1
20260510020554 76 0 0.0 0.0 0.00 0.00 0.00 79 1010.0
20260510020056 76 0 0.0 0.0 0.00 0.00 0.00 79 1010.0
20260510015553 76 0 0.0 0.0 0.00 0.00 0.00 79 1009.9
20260510015053 76 0 0.0 0.0 0.00 0.00 0.00 78 1009.7
20260510014557 77 0 0.0 0.0 0.00 0.00 0.00 78 1009.6
20260510014053 77 0 0.0 0.0 0.00 0.00 0.00 78 1009.5
20260510013553 77 0 0.0 0.0 0.00 0.00 0.00 77 1009.3
20260510013055 78 0 0.0 0.0 0.00 0.00 0.00 76 1009.2
20260510012558 78 0 0.0 0.0 0.00 0.00 0.00 76 1009.1
20260510012054 79 0 0.0 0.0 0.00 0.00 0.00 75 1009.1
20260510011602 79 0 0.0 0.0 0.00 0.00 0.00 74 1008.9
20260510011053 79 0 0.0 0.0 0.00 0.00 0.00 74 1008.9
20260510010553 79 0 0.0 0.0 0.00 0.00 0.00 74 1009.1
20260510010112 80 0 0.0 0.0 0.00 0.00 0.00 73 1009.1
20260510005554 80 0 0.0 0.0 0.00 0.00 0.00 72 1009.0
20260510005053 80 0 0.0 0.0 0.00 0.00 0.00 71 1009.1
20260510004559 81 0 0.0 0.0 0.00 0.00 0.00 71 1009.1
20260510004053 81 0 0.0 4.0 0.00 0.00 0.00 70 1009.3
20260510003553 81 0 0.0 5.0 0.00 0.00 0.00 71 1009.1
20260510003057 81 256 1.0 5.0 0.00 0.00 0.00 70 1009.0
20260510002553 81 257 2.0 5.0 0.00 0.00 0.00 69 1009.0
20260510002053 80 0 0.0 0.0 0.00 0.00 0.00 69 1009.2
20260510001557 80 0 0.0 0.0 0.00 0.00 0.00 68 1009.1
20260510001053 80 0 0.0 0.0 0.00 0.00 0.00 69 1009.1
20260510000553 80 0 0.0 0.0 0.00 0.00 0.00 69 1009.1
20260510000106 80 0 0.0 0.0 0.00 0.00 0.00 69 1009.2
20260509235553 80 0 0.0 3.0 0.00 0.00 0.00 69 1008.9
20260509235053 80 0 0.0 3.0 0.00 0.00 0.00 68 1009.3
20260509234559 80 0 1.0 3.0 0.00 0.00 0.00 67 1008.8
20260509234055 80 0 0.0 4.0 0.00 0.00 0.00 66 1009.1
20260509233552 80 68 1.0 7.0 0.00 0.00 0.00 66 1008.7
20260509233052 80 64 1.0 7.0 0.00 0.00 0.00 66 1008.8
20260509232554 81 91 2.0 5.0 0.00 0.00 0.00 65 1009.0
20260509232054 81 61 2.0 4.0 0.00 0.00 0.00 65 1009.2
20260509231557 82 63 2.0 5.0 0.00 0.00 0.00 65 1008.8
20260509231053 82 80 2.0 9.0 0.00 0.00 0.00 65 1008.9
20260509230553 82 35 3.0 9.0 0.00 0.00 0.00 64 1009.0
20260509230053 83 15 2.0 9.0 0.00 0.00 0.00 65 1009.3
20260509225554 84 65 2.0 11.0 0.00 0.00 0.00 65 1009.3
20260509225053 85 59 4.0 11.0 0.00 0.00 0.00 63 1008.9
20260509224556 86 32 3.0 10.0 0.00 0.00 0.00 62 1008.9
20260509224056 88 23 3.0 13.0 0.00 0.00 0.00 60 1008.9
20260509223553 90 81 4.0 13.0 0.00 0.00 0.00 59 1008.9
20260509223101 91 16 4.0 12.0 0.00 0.00 0.00 57 1008.7
20260509222552 92 0 0.0 5.0 0.00 0.00 0.00 55 1008.5
20260509222053 92 159 1.0 5.0 0.00 0.00 0.00 55 1008.3
20260509221552 92 0 0.0 5.0 0.00 0.00 0.00 55 1008.3
20260509221053 92 156 0.0 5.0 0.00 0.00 0.00 55 1008.3
20260509220554 92 202 2.0 8.0 0.00 0.00 0.00 56 1008.1
20260509220057 92 226 4.0 8.0 0.00 0.00 0.00 57 1007.9
20260509215554 92 153 1.0 8.0 0.00 0.00 0.00 57 1008.0